Miscellaneous Local Product
Issued by NWS North Platte, NE

Home | Current Version | Previous Version | Text Only | Print | Product List | Glossary On
Versions: 1 2 3 4 5 6 7 8 9 10 11 12 13 14 15 16 17 18 19 20 21 22 23 24 25 26 27 28 29 30 31 32 33 34 35 36 37 38 39 40 41 42 43 44 45 46 47 48 49 50
000
AXUS43 KLBF 271010
MISLBF


WESTERN AND NORTH CENTRAL NEBRASKA HOURLY WEATHER ROUNDUP
NATIONAL WEATHER SERVICE NORTH PLATTE NE
500 AM CDT SAT AUG 27 2016

NOTE: "FAIR" INDICATES FEW OR NO CLOUDS BELOW 12,000 FEET WITH NO
SIGNIFICANT WEATHER AND/OR OBSTRUCTIONS TO VISIBILITY.

NOTE: STATIONS NOT REPORTING VARIABLES SUCH AS SKY/WEATHER OR
PRESSURE ARE PROVIDED BY RAWS AND APRS NETWORKS AND ARE NOT UNDER
NATIONAL WEATHER SERVICE QUALITY CONTROL.

...OBSERVATIONS IN AND NEAR THE EASTERN PANHANDLE OF NEBRASKA...

CITY           SKY/WX    TMP DP  RH WIND       PRES   REMARKS
PINE RIDGE     PTCLDY    53  53 100 CALM      30.03S
CHADRON        CLEAR     53  50  89 NE7       30.02S
ALLIANCE       CLOUDY    55  54  96 S14       30.05S FOG
SIDNEY         FOG       51  51 100 S5        30.08F VSB 1/4
CRESCENT LAKE    N/A     55  55  99 SE5         N/A
$$

...OBSERVATIONS IN NORTHERN NEBRASKA AND FAR SOUTHERN SOUTH DAKOTA...

CITY           SKY/WX    TMP DP  RH WIND       PRES   REMARKS
WINNER         FAIR      60  57  89 S10       29.98F
VALENTINE      CLOUDY    54  53  97 N3        30.01R
THEDFORD       FOG       54  53  99 CALM      30.05S VSB 1/4
AINSWORTH      FOG       57  57 100 S7        30.01F VSB 1/2
O`NEILL        FOG       59  58  96 CALM      30.00F VSB 1/4
ORD            CLOUDY    63  61  93 CALM      30.01S
BROKEN BOW     CLOUDY    60  60 100 W6        30.03S FOG
VALENTINE NWR    N/A     52  52  99 S3          N/A
BUTTE            N/A     61  59  92 SW3         N/A
HALSEY           N/A     58  58  99 S3          N/A
EWING            N/A     62  61  98 CALM        N/A
$$

...OBSERVATIONS IN SOUTHWEST NEBRASKA AND FAR NORTHEAST COLORADO...

CITY           SKY/WX    TMP DP  RH WIND       PRES   REMARKS
WRAY           FAIR     N/A N/A N/A CALM      30.06F
HOLYOKE        FOG       54  52  94 CALM      30.08R VSB 1/4
IMPERIAL       FOG       50  49  96 CALM      30.05F VSB 3/4
OGALLALA       CLOUDY    58  55  92 CALM      30.07S FOG
NORTH PLATTE   FOG       54  51  90 NW3       30.06F VSB 1/4
MCCOOK         CLEAR     53  52  96 N5        30.04F
LEXINGTON      CLEAR     54  52  94 NW7       30.04S FOG
STAPLETON        N/A     50  49  97 CALM        N/A
GOTHENBURG       N/A     54  51  90 CALM        N/A
CALLAWAY         N/A     54  53  98 CALM        N/A
$$

...OBSERVATIONS IN CENTRAL LINCOLN COUNTY AREA...

CITY           SKY/WX    TMP DP  RH WIND       PRES   REMARKS
N.P. AIRPORT   FOG       54  51  90 NW3       30.06F VSB 1/4
N.P. DOWNTOWN    N/A     52  52 100 CALM        N/A
N.P. SOUTHEAST   N/A     52  51  95 CALM        N/A
N.P. HILLCREST   N/A     50  50  99 CALM        N/A
$$

...SOME OBSERVATIONS FROM AROUND THE REGION...

CITY           SKY/WX    TMP DP  RH WIND       PRES   REMARKS
DENVER         PTCLDY    53  48  83 SW6       30.10F
LARAMIE        CLOUDY    50  35  56 SW13      30.18S
CHEYENNE       CLOUDY    50  45  83 W9        30.13S
SCOTTSBLUFF    PTCLDY    53  51  93 E7        30.05S
RAPID CITY     LGT RAIN  54  51  90 W3        30.00S
BISMARCK       CLOUDY    53  52  96 E5        29.94F
PIERRE         PTCLDY    56  54  93 SE8       29.94F
SIOUX FALLS    LGT RAIN  61  61 100 CALM      30.01S FOG
OMAHA          CLOUDY    66  63  90 SE5       29.99S FOG
GRAND ISLAND   MOCLDY    62  61  96 SW3       30.02S FOG
KANSAS CITY    CLOUDY    67  66  97 S3        30.01R
WICHITA        PTCLDY    70  67  90 CALM      30.01R
OKLAHOMA CITY  PTCLDY    69  68  96 S5        29.99S
DALLAS         CLOUDY    75  70  84 E3        29.99S
AMARILLO       CLEAR     61  58  90 S12       30.09R
DODGE CITY     CLOUDY    62  59  90 E10       30.05F
HAYS           CLOUDY    61  54  77 NE3       30.03R
GOODLAND       FOG       53  52  96 S7        30.05S VSB 1/4
$$




USA.gov is the U.S. government's official web portal to all federal, state and local government web resources and services.